| time (UTC) | temp C | wind direction | speed KPH | gust KPH | rain 1hr cm | rain 24hr cm | rain mn cm | humidity % | barometer mb |
| 20260903091530 | 7 | 155 | 4.8 | 11.3 | 0.00 | 0.89 | 0.00 | 97 | 1012.9 |
| 20260903090030 | 7 | 169 | 4.8 | 11.3 | 0.00 | 0.89 | 0.00 | 97 | 1013.1 |
| 20260903084529 | 7 | 153 | 3.2 | 6.4 | 0.00 | 0.89 | 0.00 | 97 | 1013.1 |
| 20260903083108 | 7 | 160 | 3.2 | 6.4 | 0.00 | 0.89 | 0.00 | 97 | 1013.0 |
| 20260903081531 | 7 | 168 | 4.8 | 11.3 | 0.00 | 0.89 | 0.00 | 97 | 1013.0 |
| 20260903080030 | 7 | 164 | 3.2 | 8.0 | 0.00 | 0.89 | 0.00 | 97 | 1012.9 |
| 20260903074532 | 7 | 166 | 3.2 | 9.7 | 0.00 | 0.89 | 0.00 | 96 | 1012.7 |
| 20260903073031 | 8 | 205 | 0.0 | 4.8 | 0.00 | 0.89 | 0.00 | 96 | 1012.5 |
| 20260903071530 | 8 | 158 | 1.6 | 6.4 | 0.00 | 0.89 | 0.00 | 96 | 1012.6 |
| 20260903070029 | 7 | 129 | 0.0 | 4.8 | 0.00 | 0.89 | 0.00 | 96 | 1012.5 |
| 20260903064603 | 8 | 306 | 0.0 | 4.8 | 0.00 | 0.89 | 0.89 | 95 | 1012.5 |
| 20260903061531 | 8 | 45 | 1.6 | 6.4 | 0.00 | 0.89 | 0.89 | 95 | 1012.8 |
| 20260903060031 | 8 | 309 | 1.6 | 6.4 | 0.00 | 0.89 | 0.89 | 94 | 1012.8 |
| 20260903054531 | 9 | 76 | 4.8 | 9.7 | 0.00 | 0.89 | 0.89 | 94 | 1012.7 |
| 20260903053029 | 9 | 15 | 3.2 | 6.4 | 0.00 | 0.89 | 0.89 | 93 | 1012.6 |
| 20260903051603 | 10 | 36 | 4.8 | 12.9 | 0.00 | 0.89 | 0.89 | 94 | 1012.5 |
| 20260903050030 | 10 | 25 | 4.8 | 9.7 | 0.00 | 0.89 | 0.89 | 94 | 1012.6 |
| 20260903044530 | 10 | 24 | 6.4 | 12.9 | 0.00 | 0.89 | 0.89 | 95 | 1012.5 |
| 20260903043029 | 10 | 101 | 3.2 | 9.7 | 0.00 | 0.89 | 0.89 | 96 | 1012.3 |
| 20260903041531 | 10 | 120 | 3.2 | 11.3 | 0.03 | 0.89 | 0.89 | 96 | 1012.2 |
| 20260903040029 | 10 | 135 | 1.6 | 9.7 | 0.08 | 0.89 | 0.89 | 95 | 1011.9 |
| 20260903034530 | 10 | 145 | 3.2 | 6.4 | 0.13 | 0.89 | 0.89 | 95 | 1011.9 |
| 20260903033031 | 11 | 103 | 1.6 | 6.4 | 0.20 | 0.89 | 0.86 | 95 | 1011.8 |
| 20260903031531 | 11 | 93 | 3.2 | 8.0 | 0.23 | 0.86 | 0.81 | 95 | 1011.9 |
| 20260903030031 | 12 | 156 | 3.2 | 8.0 | 0.25 | 0.81 | 0.76 | 96 | 1011.9 |
| 20260903024606 | 12 | 119 | 4.8 | 11.3 | 0.25 | 0.76 | 0.69 | 96 | 1011.7 |
| 20260903023106 | 12 | 48 | 1.6 | 8.0 | 0.18 | 0.69 | 0.64 | 96 | 1011.7 |
| 20260903021528 | 13 | 331 | 1.6 | 8.0 | 0.15 | 0.64 | 0.56 | 96 | 1011.6 |
| 20260903020030 | 13 | 300 | 6.4 | 14.5 | 0.13 | 0.56 | 0.51 | 96 | 1011.1 |
| 20260903014531 | 13 | 305 | 4.8 | 9.7 | 0.10 | 0.51 | 0.51 | 95 | 1010.6 |
| 20260903013027 | 13 | 263 | 0.0 | 6.4 | 0.13 | 0.51 | 0.48 | 95 | 1010.7 |
| 20260903011531 | 13 | 239 | 3.2 | 4.8 | 0.15 | 0.48 | 0.43 | 95 | 1010.8 |
| 20260903010031 | 13 | 256 | 3.2 | 8.0 | 0.15 | 0.43 | 0.41 | 95 | 1010.8 |
| 20260903004531 | 13 | 276 | 4.8 | 11.3 | 0.15 | 0.41 | 0.38 | 94 | 1010.9 |
| 20260903003032 | 13 | 317 | 4.8 | 11.3 | 0.13 | 0.38 | 0.33 | 94 | 1010.8 |
| 20260903001606 | 13 | 299 | 3.2 | 9.7 | 0.08 | 0.33 | 0.28 | 93 | 1010.9 |
| 20260903000112 | 13 | 275 | 0.0 | 6.4 | 0.03 | 0.28 | 0.25 | 94 | 1010.9 |
| 20260902234540 | 13 | 296 | 3.2 | 8.0 | 0.03 | 0.25 | 0.25 | 93 | 1010.8 |
| 20260902231644 | 13 | 348 | 4.8 | 11.3 | 0.05 | 0.25 | 0.25 | 93 | 1011.1 |
| 20260902230034 | 13 | 319 | 3.2 | 8.0 | 0.08 | 0.25 | 0.23 | 93 | 1011.2 |
| 20260902224528 | 13 | 7 | 4.8 | 8.0 | 0.08 | 0.23 | 0.20 | 93 | 1011.0 |
| 20260902223032 | 13 | 324 | 3.2 | 9.7 | 0.08 | 0.20 | 0.20 | 92 | 1010.9 |
| 20260902221532 | 13 | 314 | 6.4 | 14.5 | 0.10 | 0.20 | 0.18 | 91 | 1010.9 |
| 20260902220029 | 13 | 269 | 3.2 | 9.7 | 0.10 | 0.18 | 0.15 | 90 | 1010.8 |
| 20260902211532 | 13 | 356 | 1.6 | 6.4 | 0.10 | 0.10 | 0.08 | 86 | 1010.6 |
| 20260902204534 | 13 | 50 | 1.6 | 6.4 | 0.03 | 0.03 | 0.00 | 81 | 1010.8 |
| 20260902201530 | 15 | 199 | 0.0 | 6.4 | 0.00 | 0.00 | 0.00 | 76 | 1011.1 |
| 20260902200029 | 15 | 210 | 3.2 | 9.7 | 0.00 | 0.00 | 0.00 | 74 | 1010.9 |
| 20260902194531 | 15 | 259 | 3.2 | 9.7 | 0.00 | 0.00 | 0.00 | 72 | 1010.9 |
| 20260902193032 | 15 | 240 | 3.2 | 11.3 | 0.00 | 0.00 | 0.00 | 70 | 1010.9 |
| 20260902191532 | 15 | 158 | 1.6 | 8.0 | 0.00 | 0.00 | 0.00 | 69 | 1010.8 |
| 20260902190030 | 15 | 122 | 4.8 | 14.5 | 0.00 | 0.00 | 0.00 | 73 | 1010.9 |
| 20260902184530 | 16 | 344 | 3.2 | 8.0 | 0.00 | 0.00 | 0.00 | 72 | 1011.1 |
| 20260902183107 | 16 | 303 | 1.6 | 8.0 | 0.00 | 0.00 | 0.00 | 72 | 1011.1 |
| 20260902181609 | 16 | 303 | 3.2 | 8.0 | 0.00 | 0.00 | 0.00 | 72 | 1010.9 |
| 20260902180106 | 15 | 285 | 1.6 | 6.4 | 0.00 | 0.00 | 0.00 | 73 | 1010.9 |
| 20260902174531 | 15 | 298 | 3.2 | 11.3 | 0.00 | 0.00 | 0.00 | 73 | 1010.9 |
| 20260902173032 | 16 | 303 | 6.4 | 14.5 | 0.00 | 0.00 | 0.00 | 72 | 1010.9 |
| 20260902171529 | 16 | 291 | 6.4 | 11.3 | 0.00 | 0.00 | 0.00 | 73 | 1011.0 |
| 20260902170029 | 15 | 334 | 6.4 | 11.3 | 0.00 | 0.00 | 0.00 | 74 | 1011.2 |
| 20260902164529 | 15 | 307 | 6.4 | 11.3 | 0.00 | 0.00 | 0.00 | 74 | 1011.4 |
| 20260902163106 | 15 | 334 | 3.2 | 9.7 | 0.00 | 0.00 | 0.00 | 73 | 1011.7 |
| 20260902161532 | 14 | 35 | 1.6 | 8.0 | 0.00 | 0.00 | 0.00 | 74 | 1011.9 |
| 20260902154529 | 12 | 135 | 0.0 | 3.2 | 0.00 | 0.00 | 0.00 | 81 | 1012.1 |
| 20260902153029 | 12 | 141 | 1.6 | 8.0 | 0.00 | 0.00 | 0.00 | 84 | 1012.3 |
| 20260902151530 | 11 | 208 | 1.6 | 4.8 | 0.00 | 0.00 | 0.00 | 87 | 1012.1 |
| 20260902150029 | 10 | 187 | 1.6 | 4.8 | 0.00 | 0.00 | 0.00 | 88 | 1012.2 |
| 20260902143032 | 9 | 198 | 3.2 | 6.4 | 0.00 | 0.00 | 0.00 | 89 | 1012.3 |
| 20260902130032 | 9 | 61 | 3.2 | 6.4 | 0.00 | 0.00 | 0.00 | 82 | 1012.6 |
| 20260902124532 | 10 | 165 | 3.2 | 9.7 | 0.00 | 0.00 | 0.00 | 80 | 1012.8 |
| 20260902123106 | 11 | 3 | 4.8 | 11.3 | 0.00 | 0.00 | 0.00 | 79 | 1012.7 |
| 20260902121531 | 11 | 29 | 4.8 | 11.3 | 0.00 | 0.00 | 0.00 | 77 | 1012.9 |
| 20260902120029 | 12 | 33 | 1.6 | 8.0 | 0.00 | 0.00 | 0.00 | 74 | 1012.9 |
| 20260902113030 | 12 | 334 | 8.0 | 17.7 | 0.00 | 0.00 | 0.00 | 73 | 1012.9 |
| 20260902111531 | 12 | 332 | 8.0 | 16.1 | 0.00 | 0.00 | 0.00 | 73 | 1012.9 |
| 20260902110030 | 12 | 340 | 8.0 | 17.7 | 0.00 | 0.00 | 0.00 | 74 | 1013.0 |
| 20260902104527 | 12 | 344 | 6.4 | 16.1 | 0.00 | 0.00 | 0.00 | 74 | 1013.1 |
| 20260902103029 | 13 | 5 | 4.8 | 11.3 | 0.00 | 0.00 | 0.00 | 74 | 1013.3 |
| 20260902101531 | 13 | 356 | 8.0 | 20.9 | 0.00 | 0.00 | 0.00 | 73 | 1013.4 |
| 20260902100033 | 13 | 330 | 9.7 | 19.3 | 0.00 | 0.00 | 0.00 | 71 | 1013.4 |
| 20260902094531 | 13 | 302 | 9.7 | 29.0 | 0.00 | 0.00 | 0.00 | 70 | 1013.5 |
| 20260902093031 | 13 | 303 | 11.3 | 22.5 | 0.00 | 0.00 | 0.00 | 70 | 1013.7 |